Weather History for Hazlehurst, GA

Change the Weather History Date:

Friday, January 25, 2013

  Actual Average Record
Temperature  
Mean Temperature 46 °F -  
Max Temperature 67 °F 49 °F 72 °F (2014)
Min Temperature 35 °F 26 °F 26 °F (2014)
Degree Days  
Heating Degree Days 20    
Moisture  
Dew Point 38 °F    
Average Humidity 76    
Maximum Humidity 97    
Minimum Humidity 61    
Precipitation  
Precipitation 0.00 in - - ()
Sea Level Pressure  
Sea Level Pressure 30.28 in    
Wind  
Wind Speed 5 mph (East)    
Max Wind Speed 10 mph    
Max Gust Speed 20 mph    
Visibility 10 miles    
Events      
Averages and records for this station are not official NWS values.
T = Trace of Precipitation, MM = Missing Value Source: NWS Daily Summary

Daily Weather History Graph

Daily Weather History Graph

Search for Another Location

Airport:

Trip Planner

Search our weather history database for the weather conditions in past years. The results will help you decide how hot, cold, wet, or windy it might be!

Date:

Astronomy

Jan. 25, 2013 Rise Set
Actual Time 7:27 AM EST 5:58 PM EST
Civil Twilight 7:01 AM EST 6:24 PM EST
Nautical Twilight 6:32 AM EST 6:54 PM EST
Astronomical Twilight 6:03 AM EST 7:23 PM EST
Moon 4:54 PM EST (1/25) 6:05 AM EST (1/25)
Length of Visible Light 11h 22m
Length of Day
10h 30m
Waxing Gibbous, 98% of the Moon is Illuminated
Jan 25
Waxing Gibbous
Jan 26
Full
Feb 3
Last Quarter
Feb 10
New
Feb 17
First Quarter

Hourly Weather History & Observations

Time (EST) Temp. Windchill Dew Point Humidity Pressure Visibility Wind Dir Wind Speed Gust Speed Precip Events Conditions
12:15 AM 46.2 °F 42.2 °F 39.4 °F 77% 30.35 in 10.0 mi East 8.1 mph 19.6 mph N/A   Clear
12:35 AM 45.1 °F 40.3 °F 38.3 °F 77% 30.35 in 10.0 mi East 9.2 mph - N/A   Clear
12:55 AM 44.4 °F 40.0 °F 37.0 °F 75% 30.35 in 10.0 mi East 8.1 mph - N/A   Clear
1:15 AM 43.5 °F 40.9 °F 36.3 °F 76% 30.35 in 10.0 mi East 4.6 mph - N/A   Clear
1:35 AM 43.0 °F 38.2 °F 35.8 °F 76% 30.36 in 10.0 mi East 8.1 mph - N/A   Clear
1:55 AM 42.3 °F 36.8 °F 35.4 °F 77% 30.37 in 10.0 mi East 9.2 mph - N/A   Clear
2:15 AM 41.7 °F 36.1 °F 34.5 °F 76% 30.38 in 10.0 mi East 9.2 mph - N/A   Scattered Clouds
2:35 AM 41.4 °F 36.8 °F 34.2 °F 76% 30.38 in 10.0 mi ENE 6.9 mph - N/A   Overcast
2:55 AM 40.6 °F 36.7 °F 33.8 °F 77% 30.39 in 10.0 mi ENE 5.8 mph - N/A   Overcast
3:15 AM 40.5 °F 35.1 °F 33.3 °F 75% 30.39 in 10.0 mi ENE 8.1 mph - N/A   Overcast
3:35 AM 40.3 °F 35.5 °F 32.7 °F 74% 30.38 in 10.0 mi East 6.9 mph - N/A   Overcast
3:55 AM 39.9 °F 33.4 °F 32.0 °F 73% 30.37 in 10.0 mi East 10.4 mph - N/A   Overcast
4:15 AM 39.2 °F 33.0 °F 31.6 °F 74% 30.35 in 10.0 mi ENE 9.2 mph - N/A   Overcast
4:35 AM 38.8 °F 33.2 °F 31.6 °F 75% 30.36 in 10.0 mi East 8.1 mph - N/A   Overcast
4:55 AM 38.5 °F 34.1 °F 31.8 °F 77% 30.36 in 10.0 mi East 5.8 mph - N/A   Mostly Cloudy
5:15 AM 37.9 °F 32.7 °F 31.5 °F 77% 30.37 in 10.0 mi ENE 6.9 mph - N/A   Mostly Cloudy
5:35 AM 37.4 °F 32.1 °F 30.7 °F 77% 30.37 in 10.0 mi East 6.9 mph - N/A   Overcast
5:55 AM 36.7 °F 32.9 °F 30.2 °F 77% 30.35 in 10.0 mi East 4.6 mph - N/A   Overcast
6:15 AM 36.3 °F 31.6 °F 29.8 °F 77% 30.36 in 10.0 mi NE 5.8 mph - N/A   Overcast
6:35 AM 36.3 °F 30.8 °F 29.3 °F 76% 30.38 in 10.0 mi NNE 6.9 mph - N/A   Overcast
6:55 AM 36.3 °F 30.1 °F 28.4 °F 73% 30.37 in 10.0 mi NE 8.1 mph - N/A   Overcast
7:15 AM 35.6 °F 30.7 °F 26.6 °F 70% 30.36 in 10.0 mi ENE 5.8 mph - N/A   Overcast
7:35 AM 35.6 °F 30.7 °F 26.4 °F 69% 30.39 in 10.0 mi NNE 5.8 mph - N/A   Overcast
7:55 AM 35.6 °F 31.7 °F 26.6 °F 70% 30.38 in 10.0 mi NE 4.6 mph - N/A   Overcast
8:15 AM 35.6 °F 29.9 °F 26.6 °F 70% 30.37 in 10.0 mi ENE 6.9 mph - N/A   Overcast
8:35 AM 35.8 °F 31.9 °F 27.0 °F 70% 30.37 in 10.0 mi ENE 4.6 mph - N/A   Overcast
8:55 AM 36.3 °F 30.8 °F 27.5 °F 70% 30.38 in 10.0 mi ENE 6.9 mph - N/A   Overcast
9:15 AM 36.9 °F 32.2 °F 28.0 °F 70% 30.38 in 10.0 mi NE 5.8 mph - N/A   Overcast
9:35 AM 37.6 °F 35.1 °F 28.8 °F 70% 30.39 in 10.0 mi ENE 3.5 mph - N/A   Overcast
9:55 AM 38.3 °F - 29.7 °F 71% 30.38 in 10.0 mi Calm Calm - N/A   Overcast
10:15 AM 39.0 °F 35.7 °F 30.4 °F 71% 30.39 in 10.0 mi NE 4.6 mph - N/A   Overcast
10:35 AM 39.9 °F - 31.6 °F 72% 30.38 in 10.0 mi Calm Calm - N/A   Overcast
10:55 AM 41.2 °F 38.2 °F 32.4 °F 71% 30.36 in 10.0 mi East 4.6 mph - N/A   Overcast
11:15 AM 42.8 °F 40.1 °F 34.0 °F 71% 30.34 in 10.0 mi SSE 4.6 mph - N/A   Overcast
11:35 AM 44.2 °F - 35.6 °F 72% 30.32 in 10.0 mi Calm Calm - N/A   Scattered Clouds
11:55 AM 45.9 °F 44.6 °F 36.9 °F 71% 30.30 in 10.0 mi South 3.5 mph - N/A   Clear
12:15 PM 47.5 °F - 38.1 °F 70% 30.29 in 10.0 mi SE 6.9 mph - N/A   Clear
12:35 PM 49.5 °F - 39.0 °F 67% 30.28 in 10.0 mi South 4.6 mph - N/A   Clear
12:55 PM 50.5 °F - 40.1 °F 67% 30.26 in 10.0 mi SW 3.5 mph - N/A   Clear
1:15 PM 50.7 °F - 40.5 °F 68% 30.25 in 10.0 mi South 3.5 mph - N/A   Clear
1:35 PM 51.6 °F - 41.0 °F 67% 30.26 in 10.0 mi Calm Calm - N/A   Clear
1:55 PM 53.2 °F - 41.0 °F 63% 30.23 in 10.0 mi WSW 3.5 mph - N/A   Clear
2:15 PM 53.8 °F - 41.5 °F 63% 30.22 in 10.0 mi Calm Calm - N/A   Clear
2:35 PM 54.1 °F - 42.3 °F 64% 30.22 in 10.0 mi Calm Calm - N/A   Clear
2:55 PM 54.5 °F - 42.8 °F 65% 30.20 in 10.0 mi Calm Calm - N/A   Clear
3:15 PM 55.2 °F - 43.0 °F 63% 30.21 in 10.0 mi Calm Calm - N/A   Clear
3:35 PM 56.8 °F - 43.5 °F 61% 30.20 in 10.0 mi NW 3.5 mph - N/A   Clear
3:55 PM 56.8 °F - 43.7 °F 61% 30.20 in 10.0 mi Calm Calm - N/A   Clear
4:15 PM 56.5 °F - 43.9 °F 63% 30.19 in 10.0 mi Calm Calm - N/A   Clear
4:35 PM 56.8 °F - 44.4 °F 63% 30.18 in 10.0 mi Calm Calm - N/A   Clear
4:55 PM 56.8 °F - 44.8 °F 64% 30.18 in 10.0 mi Calm Calm - N/A   Clear
5:15 PM 56.5 °F - 45.0 °F 65% 30.17 in 10.0 mi Calm Calm - N/A   Clear
5:35 PM 55.6 °F - 45.7 °F 69% 30.17 in 10.0 mi Calm Calm - N/A   Clear
5:55 PM 54.1 °F - 46.0 °F 74% 30.17 in 10.0 mi Calm Calm - N/A   Clear
6:15 PM 53.2 °F - 46.6 °F 78% 30.17 in 10.0 mi Calm Calm - N/A   Scattered Clouds
6:35 PM 51.8 °F - 46.9 °F 83% 30.17 in 10.0 mi Calm Calm - N/A   Clear
6:55 PM 51.1 °F - 46.9 °F 86% 30.16 in 10.0 mi Calm Calm - N/A   Clear
7:15 PM 50.4 °F - 46.6 °F 87% 30.17 in 10.0 mi Calm Calm - N/A   Clear
7:35 PM 48.7 °F - 46.0 °F 90% 30.17 in 10.0 mi Calm Calm - N/A   Clear
7:55 PM 48.4 °F - 46.0 °F 92% 30.16 in 10.0 mi Calm Calm - N/A   Clear
8:15 PM 48.6 °F - 45.5 °F 89% 30.17 in 10.0 mi Calm Calm - N/A   Clear
8:35 PM 48.4 °F - 45.5 °F 90% 30.17 in 10.0 mi Calm Calm - N/A   Clear
8:55 PM 47.8 °F - 45.1 °F 90% 30.17 in 10.0 mi Calm Calm - N/A   Clear
9:15 PM 46.9 °F - 45.0 °F 93% 30.17 in 10.0 mi Calm Calm - N/A   Clear
9:35 PM 46.2 °F - 44.8 °F 95% 30.17 in 7.0 mi Calm Calm - N/A   Clear
9:55 PM 45.9 °F - 44.6 °F 95% 30.18 in 7.0 mi Calm Calm - N/A   Clear
10:15 PM 45.3 °F - 44.6 °F 97% 30.17 in 7.0 mi Calm Calm - N/A   Clear
10:55 PM 47.1 °F - 45.3 °F 93% 30.17 in 7.0 mi South 3.5 mph - N/A   Clear
11:15 PM 47.1 °F - 45.5 °F 94% 30.16 in 7.0 mi South 3.5 mph - N/A   Clear
11:35 PM 48.7 °F - 46.4 °F 92% 30.16 in 7.0 mi SSW 4.6 mph - N/A   Clear
11:55 PM 49.8 °F - 47.3 °F 91% 30.17 in 10.0 mi SW 3.5 mph - N/A   Clear